Regional Weather Roundup
Issued by NWS Green Bay, WI

Home | Current Version | Previous Version | Text Only | Print | Product List | Glossary On
Versions: 1 2 3 4 5 6 7 8 9 10 11 12 13 14 15 16 17 18 19 20 21 22 23 24 25 26 27 28 29 30 31 32 33 34 35 36 37 38 39 40 41 42 43 44 45 46 47 48 49 50
000
ASUS43 KGRB 271810
RWRGRB

NORTH-CENTRAL AND NORTHEAST WISCONSIN REGIONAL WEATHER ROUNDUP
NATIONAL WEATHER SERVICE GREEN BAY WI
100 PM CDT FRI MAR 27 2015

WIZ005-009-010>012-018-019-271900-
NORTH CENTRAL WISCONSIN

CITY           SKY/WX    TMP DP  RH WIND       PRES   REMARKS
IRONWOOD       SUNNY     23   7  50 NW6       30.18F
MANITOWISH WTR SUNNY     24   2  39 CALM      30.16F
ARBOR VITAE    SUNNY     24   1  36 NE6       30.15F
EAGLE RIVER    SUNNY     23  -5  29 N6        30.15F
LAND O LAKES   SUNNY     23  -4  31 CALM      30.16F
RHINELANDER    SUNNY     24   2  38 VRB3      30.16F
PHILLIPS       SUNNY     26   7  44 CALM      30.16F
ANTIGO         SUNNY     22   2  41 N6        30.16F
TOMAHAWK       SUNNY     25   0  33 CALM      30.17F
MERRILL        SUNNY     26   4  40 N3        30.18F
$$

WIZ013-073-271900-
NORTHEAST WISCONSIN

CITY           SKY/WX    TMP DP  RH WIND       PRES   REMARKS
IRON MOUNTAIN  SUNNY     21   0  39 N7        30.17F
MARINETTE      SUNNY     23   1  39 N10G18    30.21S
OCONTO         SUNNY     24   3  40 NE10G18   30.21F
$$

WIZ017-030-035>037-045-271900-
CENTRAL WISCONSIN

CITY           SKY/WX    TMP DP  RH WIND       PRES   REMARKS
MEDFORD          N/A     26   6  42 NE6       30.17F
WAUSAU         SUNNY     26   6  42 NW7       30.17F
MOSINEE        NOT AVBL
MARSHFIELD     MOSUNNY   26  10  50 NW5       30.19F
WISC RAPIDS    SUNNY     28   5  37 N13G18    30.22F
STEVENS POINT  SUNNY     24   5  44 N7        30.20F
WAUPACA        SUNNY     30   1  28 N3G17     30.21S
SHAWANO        SUNNY     30   6  36 E8        30.21S
CLINTONVILLE   SUNNY     28   1  31 N9        30.20F
$$

WIZ038-039-048-051-271900-
FOX VALLEY

CITY           SKY/WX    TMP DP  RH WIND       PRES   REMARKS
NWS GREEN BAY  SUNNY     26   5  40 N8G18     30.21S
APPLETON       MOSUNNY   25   1  36 NE14      30.20F
OSHKOSH        MOSUNNY   27   5  39 N15G21    30.20S
FOND DU LAC    SUNNY     26   7  44 NE17      30.21S
$$

WIZ022-050-052-271900-
EAST CENTRAL WISCONSIN

CITY           SKY/WX    TMP DP  RH WIND       PRES   REMARKS
STURGEON BAY   SUNNY     19   7  58 N14G20    30.23S WCI   6
MANITOWOC      PTSUNNY   24  10  55 N14G24    30.21S
SHEBOYGAN      PTSUNNY   26   9  48 N14G22    30.19S
$$

LMZ563-521-522-541>543-271900-
LAKESHORE

STATION/POSITION TIME  TEMP    WIND        PRES    VSBY  WAVE
                       AIR SEA DIR/SP/G                  HT/PER
                 (UTC) (F)     (DEG/KT/KT) (MB)    (MI)  (FT/S)
SHEBOYGAN LKSHOR 1800   22      10/ 18/ 21 1024.0S
KEWAUNEE LKSHORE 1800   21     360/ 10/ 17 1022.2S
NORTHPORT PIER   1800   17     350/ 17/ 23 1023.4S
SISTER BAY LKSHO 1800   24      10/ 14/ 18   N/A
CHAMBERS ISLAND  1800   20     360/ 11/ 14 1023.4F
MENOMINEE LKSHOR 1800   20     350/ 11     1023.7F
$$



USA.gov is the U.S. government's official web portal to all federal, state and local government web resources and services.